Weather History for Pompano Beach, FL

Change the Weather History Date:

Friday, January 18, 2013

  Actual Average Record
Temperature  
Mean Temperature 62 °F -  
Max Temperature 71 °F 75 °F 86 °F (1960)
Min Temperature 53 °F 56 °F 34 °F (1977)
Degree Days  
Heating Degree Days 4    
Growing Degree Days 12 (Base 50)    
Moisture  
Dew Point 52 °F    
Average Humidity 69    
Maximum Humidity 82    
Minimum Humidity 56    
Precipitation  
Precipitation 0.00 in - - ()
Sea Level Pressure  
Sea Level Pressure 30.18 in    
Wind  
Wind Speed 11 mph (North)    
Max Wind Speed 15 mph    
Max Gust Speed 22 mph    
Visibility 10 miles    
Events      
Averages and records for this station are not official NWS values.
T = Trace of Precipitation, MM = Missing Value Source: NWS Daily Summary

Daily Weather History Graph

Daily Weather History Graph

Search for Another Location

Airport:

Trip Planner

Search our weather history database for the weather conditions in past years. The results will help you decide how hot, cold, wet, or windy it might be!

Date:

Astronomy

Jan. 18, 2013 Rise Set
Actual Time 7:09 AM EST 5:52 PM EST
Civil Twilight 6:44 AM EST 6:17 PM EST
Nautical Twilight 6:16 AM EST 6:45 PM EST
Astronomical Twilight 5:48 AM EST 7:13 PM EST
Moon 11:34 AM EST (1/18) No Moon Set
Length of Visible Light 11h 33m
Length of Day
10h 43m
Waxing Crescent, 47% of the Moon is Illuminated
Jan 18
Waxing Crescent
Jan 18
First Quarter
Jan 26
Full
Feb 3
Last Quarter
Feb 10
New

Hourly Weather History & Observations

Time (EST) Temp. Dew Point Humidity Pressure Visibility Wind Dir Wind Speed Gust Speed Precip Events Conditions
12:53 AM 59.0 °F 52.0 °F 78% 30.12 in 10.0 mi WNW 10.4 mph - N/A   Clear
1:53 AM 57.9 °F 51.1 °F 78% 30.12 in 10.0 mi WNW 11.5 mph - N/A   Clear
2:53 AM 57.0 °F 50.0 °F 77% 30.12 in 10.0 mi WNW 9.2 mph - N/A   Clear
3:53 AM 55.9 °F 50.0 °F 80% 30.14 in 10.0 mi WNW 9.2 mph - N/A   Clear
4:51 AM 55.4 °F 50.0 °F 82% 30.14 in 10.0 mi WNW 9.2 mph - N/A   Mostly Cloudy
4:53 AM 55.9 °F 50.0 °F 80% 30.14 in 10.0 mi WNW 9.2 mph - N/A   Mostly Cloudy
5:53 AM 55.9 °F 48.9 °F 77% 30.16 in 10.0 mi NNW 12.7 mph 20.7 mph N/A   Overcast
6:53 AM 54.0 °F 46.9 °F 77% 30.19 in 10.0 mi North 12.7 mph - N/A   Overcast
7:53 AM 53.1 °F 46.0 °F 77% 30.21 in 10.0 mi NW 12.7 mph - N/A   Mostly Cloudy
8:02 AM 53.6 °F 46.4 °F 77% 30.21 in 10.0 mi NW 11.5 mph - N/A   Mostly Cloudy
8:53 AM 54.0 °F 46.0 °F 75% 30.24 in 10.0 mi NNW 12.7 mph - N/A   Mostly Cloudy
9:53 AM 57.0 °F 46.9 °F 69% 30.25 in 10.0 mi NW 9.2 mph - N/A   Scattered Clouds
10:53 AM 59.0 °F 48.0 °F 67% 30.25 in 10.0 mi WNW 9.2 mph - N/A   Partly Cloudy
11:53 AM 62.1 °F 48.9 °F 62% 30.22 in 10.0 mi NW 8.1 mph - N/A   Scattered Clouds
12:53 PM 66.0 °F 50.0 °F 56% 30.19 in 10.0 mi North 8.1 mph - N/A   Scattered Clouds
1:53 PM 66.9 °F 52.0 °F 59% 30.17 in 10.0 mi NE 5.8 mph - N/A   Mostly Cloudy
2:53 PM 68.0 °F 57.9 °F 70% 30.16 in 10.0 mi NE 11.5 mph - N/A   Mostly Cloudy
3:53 PM 69.1 °F 59.0 °F 70% 30.16 in 10.0 mi NNE 15.0 mph - N/A   Overcast
4:53 PM 70.0 °F 60.1 °F 71% 30.17 in 10.0 mi NNE 9.2 mph - N/A   Mostly Cloudy
5:53 PM 70.0 °F 57.9 °F 65% 30.18 in 10.0 mi ENE 15.0 mph 21.9 mph 0.00 in   Overcast
6:53 PM 70.0 °F 55.9 °F 61% 30.19 in 10.0 mi NE 15.0 mph - N/A   Overcast
7:53 PM 70.0 °F 55.9 °F 61% 30.20 in 10.0 mi NE 13.8 mph - N/A   Overcast
8:53 PM 70.0 °F 55.0 °F 59% 30.20 in 10.0 mi ENE 13.8 mph - N/A   Overcast
9:53 PM 70.0 °F 55.0 °F 59% 30.20 in 10.0 mi NE 12.7 mph - N/A   Overcast
10:53 PM 70.0 °F 55.0 °F 59% 30.20 in 10.0 mi ENE 11.5 mph - N/A   Overcast
11:53 PM 71.1 °F 55.9 °F 59% 30.19 in 10.0 mi ENE 9.2 mph 18.4 mph N/A   Overcast